When you browse on this site, cookies collect data to enhance your experience and personalize the content and advertising you see.
Visit our Privacy Policy to learn more. By continuing to use the site, you agree to this use of cookies and data.
  • In Hungary
  • List of Countries
  • For 7 days
  • Water Temperature
  • Weather Map
  • News
  • Weather Widgets
  • user-avatar
    Login

    Hourly Weather Zaharovo

    Today, 25 February, Tuesday

    Time Temperature Precipitation Wind Pressure Humidity
    00:00 -1°C° 0 mm 1 mps 733 mmHg 89%
    01:00 -3°C° 0 mm 2 mps 733 mmHg 90%
    02:00 -3°C° 0 mm 2 mps 734 mmHg 91%
    03:00 -4°C° 0 mm 3 mps 733 mmHg 95%
    04:00 -4°C° 0 mm 3 mps 734 mmHg 95%
    05:00 -4°C° 0 mm 4 mps 734 mmHg 95%
    06:00 -5°C° 0 mm 5 mps 734 mmHg 95%
    07:00 -5°C° 0 mm 5 mps 734 mmHg 93%
    08:00 -5°C° 0 mm 5 mps 734 mmHg 92%
    09:00 -6°C° 0 mm 5 mps 734 mmHg 91%
    10:00 -5°C° 0 mm 6 mps 734 mmHg 88%
    11:00 -4°C° 0 mm 6 mps 735 mmHg 86%
    12:00 -3°C° 0 mm 7 mps 735 mmHg 84%
    13:00 -3°C° 0 mm 6 mps 735 mmHg 81%
    14:00 -2°C° 0 mm 5 mps 736 mmHg 78%
    15:00 -1°C° 0 mm 4 mps 735 mmHg 75%
    16:00 -2°C° 0 mm 4 mps 736 mmHg 75%
    17:00 -3°C° 0 mm 4 mps 736 mmHg 76%
    18:00 -4°C° 0 mm 3 mps 737 mmHg 77%
    19:00 -5°C° 0 mm 4 mps 737 mmHg 77%
    20:00 -5°C° 0 mm 4 mps 737 mmHg 77%
    21:00 -5°C° 0 mm 4 mps 738 mmHg 77%
    22:00 -5°C° 0 mm 4 mps 738 mmHg 78%
    23:00 -7°C° 0 mm 4 mps 738 mmHg 80%

    Tomorrow, 26 February, Wednesday

    Time Temperature Precipitation Wind Pressure Humidity
    00:00 -6°C° 0 mm 3 mps 738 mmHg 81%
    01:00 -6°C° 0 mm 3 mps 738 mmHg 82%
    02:00 -7°C° 0 mm 3 mps 738 mmHg 83%
    03:00 -7°C° 0 mm 3 mps 738 mmHg 84%
    04:00 -7°C° 0 mm 3 mps 738 mmHg 85%
    05:00 -7°C° 0 mm 3 mps 737 mmHg 86%
    06:00 -8°C° 0 mm 4 mps 737 mmHg 88%
    07:00 -8°C° 0 mm 4 mps 737 mmHg 88%
    08:00 -7°C° 0 mm 5 mps 737 mmHg 89%
    09:00 -7°C° 0 mm 5 mps 737 mmHg 90%
    10:00 -6°C° 0 mm 5 mps 736 mmHg 91%
    11:00 -5°C° 0 mm 6 mps 736 mmHg 92%
    12:00 -4°C° 0 mm 6 mps 735 mmHg 93%
    13:00 -3°C° 0.4 mm 6 mps 735 mmHg 94%
    14:00 -3°C° 0.4 mm 6 mps 734 mmHg 96%
    15:00 -3°C° 0.4 mm 6 mps 734 mmHg 98%
    16:00 -2°C° 0.4 mm 6 mps 734 mmHg 98%
    17:00 -2°C° 0.4 mm 6 mps 734 mmHg 97%
    18:00 -1°C° 0.4 mm 5 mps 733 mmHg 97%
    19:00 -1°C° 0.2 mm 5 mps 733 mmHg 97%
    20:00 -1°C° 0.2 mm 5 mps 733 mmHg 98%
    21:00 -1°C° 0.2 mm 4 mps 734 mmHg 98%
    22:00 -1°C° 0 mm 4 mps 734 mmHg 98%
    23:00 -1°C° 0 mm 4 mps 734 mmHg 98%

    Day after tomorrow, 27 February, Thursday

    Time Temperature Precipitation Wind Pressure Humidity
    00:00 0°C° 0 mm 3 mps 734 mmHg 98%
    01:00 0°C° 0 mm 3 mps 734 mmHg 98%
    02:00 0°C° 0 mm 3 mps 734 mmHg 98%
    03:00 +1°C° 0 mm 2 mps 734 mmHg 98%
    04:00 0°C° 0 mm 3 mps 734 mmHg 98%
    05:00 0°C° 0 mm 3 mps 733 mmHg 98%
    06:00 0°C° 0 mm 3 mps 733 mmHg 98%
    07:00 -1°C° 0.2 mm 4 mps 733 mmHg 98%
    08:00 -1°C° 0.2 mm 4 mps 733 mmHg 98%
    09:00 -1°C° 0.2 mm 5 mps 733 mmHg 98%
    10:00 -1°C° 0.1 mm 5 mps 732 mmHg 98%
    11:00 -2°C° 0.1 mm 6 mps 732 mmHg 98%
    12:00 -1°C° 0.1 mm 6 mps 732 mmHg 99%
    13:00 -1°C° 0 mm 6 mps 731 mmHg 99%
    14:00 -1°C° 0 mm 6 mps 731 mmHg 98%
    15:00 -1°C° 0 mm 6 mps 731 mmHg 98%
    16:00 0°C° 0 mm 5 mps 731 mmHg 98%
    17:00 0°C° 0 mm 5 mps 731 mmHg 97%
    18:00 0°C° 0 mm 4 mps 731 mmHg 97%
    19:00 0°C° 0.1 mm 4 mps 731 mmHg 97%
    20:00 0°C° 0.1 mm 4 mps 731 mmHg 97%
    21:00 0°C° 0.1 mm 5 mps 731 mmHg 98%
    22:00 0°C° 0.1 mm 4 mps 731 mmHg 98%
    23:00 +1°C° 0.1 mm 3 mps 731 mmHg 98%

    28 February, Friday

    Time Temperature Precipitation Wind Pressure Humidity
    00:00 +1°C° 0.1 mm 3 mps 731 mmHg 98%
    01:00 +2°C° 0 mm 2 mps 731 mmHg 98%
    02:00 +1°C° 0 mm 2 mps 732 mmHg 97%
    03:00 +1°C° 0 mm 2 mps 732 mmHg 97%
    04:00 +2°C° 0 mm 1 mps 731 mmHg 97%
    05:00 +2°C° 0 mm 1 mps 731 mmHg 96%
    06:00 +2°C° 0 mm 1 mps 731 mmHg 96%
    07:00 +1°C° 2.4 mm 2 mps 730 mmHg 97%
    08:00 -1°C° 2.4 mm 3 mps 730 mmHg 98%
    09:00 -2°C° 2.4 mm 4 mps 730 mmHg 99%
    10:00 -2°C° 1.3 mm 4 mps 729 mmHg 99%
    11:00 -2°C° 1.3 mm 4 mps 729 mmHg 99%
    12:00 -2°C° 1.3 mm 4 mps 729 mmHg 99%
    13:00 -2°C° 1.1 mm 5 mps 729 mmHg 99%
    14:00 -3°C° 1.1 mm 6 mps 729 mmHg 99%
    15:00 -3°C° 1.1 mm 6 mps 729 mmHg 98%
    16:00 -3°C° 0.5 mm 6 mps 730 mmHg 95%
    17:00 -2°C° 0.5 mm 5 mps 731 mmHg 91%
    18:00 -2°C° 0.5 mm 5 mps 732 mmHg 88%
    19:00 -4°C° 0 mm 5 mps 733 mmHg 87%
    20:00 -4°C° 0 mm 5 mps 734 mmHg 85%
    21:00 -5°C° 0 mm 5 mps 735 mmHg 84%
    22:00 -5°C° 0 mm 5 mps 736 mmHg 85%
    23:00 -4°C° 0 mm 4 mps 736 mmHg 86%

    29 February, Saturday

    Time Temperature Precipitation Wind Pressure Humidity
    00:00 -4°C° 0 mm 4 mps 737 mmHg 87%
    01:00 -4°C° 0 mm 4 mps 737 mmHg 87%
    02:00 -5°C° 0 mm 4 mps 737 mmHg 88%
    03:00 -5°C° 0 mm 4 mps 738 mmHg 88%
    04:00 -5°C° 0 mm 4 mps 738 mmHg 88%
    05:00 -5°C° 0 mm 4 mps 739 mmHg 88%
    06:00 -5°C° 0 mm 4 mps 739 mmHg 89%
    07:00 -5°C° 0 mm 3 mps 739 mmHg 89%
    08:00 -5°C° 0 mm 3 mps 740 mmHg 90%
    09:00 -4°C° 0 mm 3 mps 740 mmHg 90%
    10:00 -4°C° 0 mm 3 mps 740 mmHg 89%
    11:00 -2°C° 0 mm 3 mps 740 mmHg 88%
    12:00 -1°C° 0 mm 3 mps 741 mmHg 88%
    13:00 -1°C° 0 mm 3 mps 741 mmHg 88%
    14:00 -1°C° 0 mm 3 mps 741 mmHg 88%
    15:00 -1°C° 0 mm 3 mps 741 mmHg 88%
    16:00 -2°C° 0 mm 3 mps 741 mmHg 89%
    17:00 -2°C° 0 mm 3 mps 741 mmHg 90%
    18:00 -3°C° 0 mm 2 mps 742 mmHg 92%
    19:00 -3°C° 0 mm 2 mps 742 mmHg 91%
    20:00 -3°C° 0 mm 2 mps 742 mmHg 91%
    21:00 -4°C° 0 mm 2 mps 743 mmHg 91%
    22:00 -4°C° 0 mm 2 mps 743 mmHg 90%
    23:00 -4°C° 0 mm 2 mps 743 mmHg 89%

    1 March, Sunday

    Time Temperature Precipitation Wind Pressure Humidity
    00:00 -4°C° 0 mm 2 mps 744 mmHg 88%
    01:00 -3°C° 0 mm 2 mps 744 mmHg 89%
    02:00 -3°C° 0 mm 2 mps 744 mmHg 89%
    03:00 -3°C° 0 mm 2 mps 744 mmHg 90%
    04:00 -3°C° 0.2 mm 2 mps 745 mmHg 92%
    05:00 -1°C° 0.2 mm 1 mps 745 mmHg 94%
    06:00 -1°C° 0.2 mm 1 mps 745 mmHg 96%
    07:00 0°C° 0.3 mm 1 mps 745 mmHg 95%
    08:00 0°C° 0.3 mm 1 mps 746 mmHg 95%
    09:00 0°C° 0.3 mm 1 mps 746 mmHg 95%
    10:00 -1°C° 0.1 mm 2 mps 746 mmHg 95%
    11:00 -1°C° 0.1 mm 2 mps 746 mmHg 95%
    12:00 -1°C° 0.1 mm 2 mps 747 mmHg 95%
    13:00 -1°C° 0 mm 2 mps 747 mmHg 95%
    14:00 +1°C° 0 mm 2 mps 747 mmHg 95%
    15:00 +1°C° 0 mm 2 mps 747 mmHg 96%
    16:00 -1°C° 0 mm 2 mps 747 mmHg 95%
    17:00 -1°C° 0 mm 2 mps 747 mmHg 95%
    18:00 -2°C° 0 mm 2 mps 747 mmHg 95%
    19:00 -2°C° 0 mm 3 mps 747 mmHg 95%
    20:00 -2°C° 0 mm 3 mps 748 mmHg 95%
    21:00 -2°C° 0 mm 3 mps 748 mmHg 95%
    22:00 -2°C° 0 mm 3 mps 748 mmHg 95%
    23:00 -2°C° 0 mm 3 mps 748 mmHg 95%
    Show more